{"data":{"norad_id":58220,"intl_designator":"2023-170Q","name":"STARLINK-30792","alt_names":[],"object_type":"PAYLOAD","status":"ACTIVE","operator":null,"country":"US","launch_date":"2023-11-03","launch_site_code":"AFETR","launch_vehicle":null,"mission":null,"orbit_class":"UNKNOWN","rcs_meters":null,"size_class":null,"mass_kg":null,"dimensions":null,"purposes":["comms"],"wikipedia_slug":null,"has_3d_model":false,"image_url":null,"decayed_at":null,"tle_current":{"epoch":"2026-05-24T23:35:56.917824Z","epoch_age_seconds":73713,"freshness":"FRESH","line1":"1 58220U 23170Q   26144.98329766  .00015155  00000+0  10072-2 0  9995","line2":"2 58220  42.9991 139.0030 0004015  93.8497 266.2806 15.06990915141785","mean_motion":15.06990915,"eccentricity":0.0004015,"inclination_deg":42.9991,"raan_deg":139.003,"arg_perigee_deg":93.8497,"mean_anomaly_deg":266.2806,"bstar":0.0010072,"rev_number":14178,"period_min":95.554657009993,"perigee_km":542.62127984796,"apogee_km":548.18088092651,"semimajor_km":6923.5380803872,"source":"CELESTRAK","updated_at":"2026-05-25T13:38:18.576965Z"}}}